Location: Ahausen
(50.4985°N, 8.2722°E)
Time: 16:10:40
(UTC+00:00)

H-2A R/B - Pass Details

Date: 18 September 2020
Orbit: 734 x 836 km, 98.2° (Epoch: 22 October)

Event Time Altitude Azimuth Distance (km) Brightness Sun altitude
Rises 19:14:24 0° 190° (S) 3,162 5.1 -16.4°
Reaches altitude 10° 19:16:51 10° 200° (SSW) 2,252 4.4 -16.8°
Maximum altitude 19:21:20 34° 265° (W) 1,231 3.6 -17.4°
Drops below altitude 10° 19:25:57 10° 330° (NNW) 2,314 5.3 -18.1°
Sets 19:28:30 0° 340° (NNW) 3,262 6.0 -18.5°
